Location: Earls Croome
(52.0667°N, 2.2000°W)
Time: 05:13:39
(UTC+00:00)

Cosmos 2228 Rocket - Pass Details

Date: 17 November 2019
Orbit: 619 x 651 km, 82.5° (Epoch: 12 December)

Event Time Altitude Azimuth Distance (km) Brightness Sun altitude
Rises 05:37:01 0° 351° (N) 2,981 6.4 -17.3°
Reaches altitude 10° 05:39:18 10° 355° (N) 2,068 5.6 -17.0°
Maximum altitude 05:43:52 61° 76° (ENE) 747 3.7 -16.3°
Drops below altitude 10° 05:48:23 10° 157° (SSE) 2,055 6.2 -15.6°
Sets 05:50:40 0° 161° (SSE) 2,961 7.0 -15.3°
